Location: Potomac
(46.8816°N, 113.5795°W)
Time: 13:20:49
(UTC+00:00)

SPROUT - Visible Passes

Search period start: 28 June 2022 00:00
Search period end: 08 July 2022 00:00
Orbit: 588 x 601 km, 97.9° (Epoch: 28 June)

Date Brightness Start Highest point End Pass type
(mag) Time Alt. Az. Time Alt. Az. Time Alt. Az.
28 Jun ? 07:54:16 32° SE 07:55:49 50° ENE 07:59:52 10° N visible
28 Jun ? 09:30:54 16° WSW 09:31:42 17° W 09:34:24 10° NW visible
29 Jun ? 08:03:51 38° SE 08:05:15 63° ENE 08:09:24 10° N visible
29 Jun ? 09:40:29 13° WSW 09:41:16 13° W 09:43:19 10° WNW visible
30 Jun ? 08:13:25 44° SSE 08:14:41 79° ENE 08:18:53 10° N visible
30 Jun ? 09:50:04 10° W 09:50:50 10° W 09:51:40 10° WNW visible
01 Jul ? 06:47:35 10° E 06:49:10 12° ENE 06:50:46 10° NE visible
01 Jul ? 08:23:00 47° S 08:24:08 82° WSW 08:28:20 10° NNW visible
02 Jul ? 06:56:12 10° E 06:58:29 15° ENE 07:00:47 10° NNE visible
02 Jul ? 08:32:33 47° SSW 08:33:34 65° WSW 08:37:44 10° NNW visible
03 Jul ? 07:05:28 12° E 07:07:49 18° ENE 07:10:35 10° NNE visible
03 Jul ? 08:42:07 42° SW 08:43:02 51° W 08:47:07 10° NNW visible
04 Jul ? 07:15:01 15° ESE 07:17:08 21° ENE 07:20:17 10° NNE visible
04 Jul ? 08:51:39 36° SW 08:52:29 41° W 08:56:27 10° NNW visible
05 Jul ? 07:24:33 18° ESE 07:26:28 26° ENE 07:29:55 10° N visible
05 Jul ? 09:01:11 30° WSW 09:01:56 33° W 09:05:44 10° NNW visible
06 Jul ? 07:34:05 23° ESE 07:35:48 31° ENE 07:39:30 10° N visible
06 Jul ? 09:10:43 25° WSW 09:11:24 26° W 09:14:57 10° NW visible
07 Jul ? 07:43:37 28° ESE 07:45:08 38° ENE 07:49:01 10° N visible
07 Jul ? 09:20:15 21° WSW 09:20:52 21° W 09:24:06 10° NW visible
